Date Hour Ending, MW ,,,,,,,,,,,,,,,,,
 10/01/2015 1:00,61,,,,,,,,,,,,,,,,,
 10/01/2015 2:00,61,,,,,,,,,,,,,,,,,
 10/01/2015 3:00,59,,,,,,,,,,,,,,,,,
 10/01/2015 4:00,74,,,,,,,,,,,,,,,,,
 10/01/2015 5:00,80,,,,,,,,,,,,,,,,,
 10/01/2015 6:00,78,,,,,,,,,,,,,,,,,
 10/01/2015 7:00,143,,,,,,,,,,,,,,,,,
 10/01/2015 8:00,182,,,,,,,,,,,,,,,,,
 10/01/2015 9:00,127,,,,,,,,,,,,,,,,,
 10/01/2015 10:00,125,,,,,,,,,,,,,,,,,
 10/01/2015 11:00,95,,,,,,,,,,,,,,,,,
 10/01/2015 12:00,85,,,,,,,,,,,,,,,,,
 10/01/2015 13:00,64,,,,,,,,,,,,,,,,,
 10/01/2015 14:00,68,,,,,,,,,,,,,,,,,
 10/01/2015 15:00,63,,,,,,,,,,,,,,,,,
 10/01/2015 16:00,50,,,,,,,,,,,,,,,,,
 10/01/2015 17:00,43,,,,,,,,,,,,,,,,,
 10/01/2015 18:00,50,,,,,,,,,,,,,,,,,
 10/01/2015 19:00,53,,,,,,,,,,,,,,,,,
 10/01/2015 20:00,64,,,,,,,,,,,,,,,,,
 10/01/2015 21:00,72,,,,,,,,,,,,,,,,,
 10/01/2015 22:00,60,,,,,,,,,,,,,,,,,
 10/01/2015 23:00,55,,,,,,,,,,,,,,,,,
 10/02/2015 0:00,69,,,,,,,,,,,,,,,,,
 10/02/2015 1:00,84,,,,,,,,,,,,,,,,,
 10/02/2015 2:00,90,,,,,,,,,,,,,,,,,
 10/02/2015 3:00,77,,,,,,,,,,,,,,,,,
 10/02/2015 4:00,74,,,,,,,,,,,,,,,,,
 10/02/2015 5:00,86,,,,,,,,,,,,,,,,,
 10/02/2015 6:00,75,,,,,,,,,,,,,,,,,
 10/02/2015 7:00,114,,,,,,,,,,,,,,,,,
 10/02/2015 8:00,105,,,,,,,,,,,,,,,,,
 10/02/2015 9:00,99,,,,,,,,,,,,,,,,,
 10/02/2015 10:00,128,,,,,,,,,,,,,,,,,
 10/02/2015 11:00,137,,,,,,,,,,,,,,,,,
 10/02/2015 12:00,145,,,,,,,,,,,,,,,,,
 10/02/2015 13:00,149,,,,,,,,,,,,,,,,,
 10/02/2015 14:00,143,,,,,,,,,,,,,,,,,
 10/02/2015 15:00,146,,,,,,,,,,,,,,,,,
 10/02/2015 16:00,189,,,,,,,,,,,,,,,,,
 10/02/2015 17:00,224,,,,,,,,,,,,,,,,,
 10/02/2015 18:00,230,,,,,,,,,,,,,,,,,
 10/02/2015 19:00,193,,,,,,,,,,,,,,,,,
 10/02/2015 20:00,192,,,,,,,,,,,,,,,,,
 10/02/2015 21:00,187,,,,,,,,,,,,,,,,,
 10/02/2015 22:00,171,,,,,,,,,,,,,,,,,
 10/02/2015 23:00,126,,,,,,,,,,,,,,,,,
 10/03/2015 0:00,82,,,,,,,,,,,,,,,,,
 10/03/2015 1:00,37,,,,,,,,,,,,,,,,,
 10/03/2015 2:00,46,,,,,,,,,,,,,,,,,
 10/03/2015 3:00,67,,,,,,,,,,,,,,,,,
 10/03/2015 4:00,69,,,,,,,,,,,,,,,,,
 10/03/2015 5:00,70,,,,,,,,,,,,,,,,,
 10/03/2015 6:00,73,,,,,,,,,,,,,,,,,
 10/03/2015 7:00,127,,,,,,,,,,,,,,,,,
 10/03/2015 8:00,144,,,,,,,,,,,,,,,,,
 10/03/2015 9:00,203,,,,,,,,,,,,,,,,,
 10/03/2015 10:00,146,,,,,,,,,,,,,,,,,
 10/03/2015 11:00,88,,,,,,,,,,,,,,,,,
 10/03/2015 12:00,84,,,,,,,,,,,,,,,,,
 10/03/2015 13:00,77,,,,,,,,,,,,,,,,,
 10/03/2015 14:00,53,,,,,,,,,,,,,,,,,
 10/03/2015 15:00,43,,,,,,,,,,,,,,,,,
 10/03/2015 16:00,34,,,,,,,,,,,,,,,,,
 10/03/2015 17:00,29,,,,,,,,,,,,,,,,,
 10/03/2015 18:00,23,,,,,,,,,,,,,,,,,
 10/03/2015 19:00,26,,,,,,,,,,,,,,,,,
 10/03/2015 20:00,41,,,,,,,,,,,,,,,,,
 10/03/2015 21:00,36,,,,,,,,,,,,,,,,,
 10/03/2015 22:00,35,,,,,,,,,,,,,,,,,
 10/03/2015 23:00,21,,,,,,,,,,,,,,,,,
 10/04/2015 0:00,-26,,,,,,,,,,,,,,,,,
 10/04/2015 1:00,-16,,,,,,,,,,,,,,,,,
 10/04/2015 2:00,-12,,,,,,,,,,,,,,,,,
 10/04/2015 3:00,-7,,,,,,,,,,,,,,,,,
 10/04/2015 4:00,-8,,,,,,,,,,,,,,,,,
 10/04/2015 5:00,12,,,,,,,,,,,,,,,,,
 10/04/2015 6:00,46,,,,,,,,,,,,,,,,,
 10/04/2015 7:00,98,,,,,,,,,,,,,,,,,
 10/04/2015 8:00,79,,,,,,,,,,,,,,,,,
 10/04/2015 9:00,100,,,,,,,,,,,,,,,,,
 10/04/2015 10:00,124,,,,,,,,,,,,,,,,,
 10/04/2015 11:00,113,,,,,,,,,,,,,,,,,
 10/04/2015 12:00,118,,,,,,,,,,,,,,,,,
 10/04/2015 13:00,83,,,,,,,,,,,,,,,,,
 10/04/2015 14:00,72,,,,,,,,,,,,,,,,,
 10/04/2015 15:00,87,,,,,,,,,,,,,,,,,
 10/04/2015 16:00,109,,,,,,,,,,,,,,,,,
 10/04/2015 17:00,145,,,,,,,,,,,,,,,,,
 10/04/2015 18:00,158,,,,,,,,,,,,,,,,,
 10/04/2015 19:00,163,,,,,,,,,,,,,,,,,
 10/04/2015 20:00,151,,,,,,,,,,,,,,,,,
 10/04/2015 21:00,174,,,,,,,,,,,,,,,,,
 10/04/2015 22:00,140,,,,,,,,,,,,,,,,,
 10/04/2015 23:00,132,,,,,,,,,,,,,,,,,
 10/05/2015 0:00,63,,,,,,,,,,,,,,,,,
 10/05/2015 1:00,65,,,,,,,,,,,,,,,,,
 10/05/2015 2:00,85,,,,,,,,,,,,,,,,,
 10/05/2015 3:00,91,,,,,,,,,,,,,,,,,
 10/05/2015 4:00,98,,,,,,,,,,,,,,,,,
 10/05/2015 5:00,130,,,,,,,,,,,,,,,,,
 10/05/2015 6:00,168,,,,,,,,,,,,,,,,,
 10/05/2015 7:00,178,,,,,,,,,,,,,,,,,
 10/05/2015 8:00,206,,,,,,,,,,,,,,,,,
 10/05/2015 9:00,199,,,,,,,,,,,,,,,,,
 10/05/2015 10:00,211,,,,,,,,,,,,,,,,,
 10/05/2015 11:00,199,,,,,,,,,,,,,,,,,
 10/05/2015 12:00,183,,,,,,,,,,,,,,,,,
 10/05/2015 13:00,210,,,,,,,,,,,,,,,,,
 10/05/2015 14:00,242,,,,,,,,,,,,,,,,,
 10/05/2015 15:00,250,,,,,,,,,,,,,,,,,
 10/05/2015 16:00,261,,,,,,,,,,,,,,,,,
 10/05/2015 17:00,244,,,,,,,,,,,,,,,,,
 10/05/2015 18:00,240,,,,,,,,,,,,,,,,,
 10/05/2015 19:00,238,,,,,,,,,,,,,,,,,
 10/05/2015 20:00,234,,,,,,,,,,,,,,,,,
 10/05/2015 21:00,229,,,,,,,,,,,,,,,,,
 10/05/2015 22:00,227,,,,,,,,,,,,,,,,,
 10/05/2015 23:00,172,,,,,,,,,,,,,,,,,
 10/06/2015 0:00,171,,,,,,,,,,,,,,,,,
 10/06/2015 1:00,106,,,,,,,,,,,,,,,,,
 10/06/2015 2:00,42,,,,,,,,,,,,,,,,,
 10/06/2015 3:00,28,,,,,,,,,,,,,,,,,
 10/06/2015 4:00,36,,,,,,,,,,,,,,,,,
 10/06/2015 5:00,68,,,,,,,,,,,,,,,,,
 10/06/2015 6:00,71,,,,,,,,,,,,,,,,,
 10/06/2015 7:00,150,,,,,,,,,,,,,,,,,
 10/06/2015 8:00,200,,,,,,,,,,,,,,,,,
 10/06/2015 9:00,210,,,,,,,,,,,,,,,,,
 10/06/2015 10:00,224,,,,,,,,,,,,,,,,,
 10/06/2015 11:00,227,,,,,,,,,,,,,,,,,
 10/06/2015 12:00,230,,,,,,,,,,,,,,,,,
 10/06/2015 13:00,227,,,,,,,,,,,,,,,,,
 10/06/2015 14:00,229,,,,,,,,,,,,,,,,,
 10/06/2015 15:00,231,,,,,,,,,,,,,,,,,
 10/06/2015 16:00,215,,,,,,,,,,,,,,,,,
 10/06/2015 17:00,226,,,,,,,,,,,,,,,,,
 10/06/2015 18:00,270,,,,,,,,,,,,,,,,,
 10/06/2015 19:00,240,,,,,,,,,,,,,,,,,
 10/06/2015 20:00,238,,,,,,,,,,,,,,,,,
 10/06/2015 21:00,264,,,,,,,,,,,,,,,,,
 10/06/2015 22:00,271,,,,,,,,,,,,,,,,,
 10/06/2015 23:00,218,,,,,,,,,,,,,,,,,
 10/07/2015 0:00,199,,,,,,,,,,,,,,,,,
 10/07/2015 1:00,118,,,,,,,,,,,,,,,,,
 10/07/2015 2:00,120,,,,,,,,,,,,,,,,,
 10/07/2015 3:00,156,,,,,,,,,,,,,,,,,
 10/07/2015 4:00,159,,,,,,,,,,,,,,,,,
 10/07/2015 5:00,160,,,,,,,,,,,,,,,,,
 10/07/2015 6:00,166,,,,,,,,,,,,,,,,,
 10/07/2015 7:00,254,,,,,,,,,,,,,,,,,
 10/07/2015 8:00,267,,,,,,,,,,,,,,,,,
 10/07/2015 9:00,272,,,,,,,,,,,,,,,,,
 10/07/2015 10:00,223,,,,,,,,,,,,,,,,,
 10/07/2015 11:00,204,,,,,,,,,,,,,,,,,
 10/07/2015 12:00,209,,,,,,,,,,,,,,,,,
 10/07/2015 13:00,272,,,,,,,,,,,,,,,,,
 10/07/2015 14:00,206,,,,,,,,,,,,,,,,,
 10/07/2015 15:00,179,,,,,,,,,,,,,,,,,
 10/07/2015 16:00,148,,,,,,,,,,,,,,,,,
 10/07/2015 17:00,127,,,,,,,,,,,,,,,,,
 10/07/2015 18:00,132,,,,,,,,,,,,,,,,,
 10/07/2015 19:00,137,,,,,,,,,,,,,,,,,
 10/07/2015 20:00,148,,,,,,,,,,,,,,,,,
 10/07/2015 21:00,121,,,,,,,,,,,,,,,,,
 10/07/2015 22:00,92,,,,,,,,,,,,,,,,,
 10/07/2015 23:00,63,,,,,,,,,,,,,,,,,
 10/08/2015 0:00,40,,,,,,,,,,,,,,,,,
 10/08/2015 1:00,43,,,,,,,,,,,,,,,,,
 10/08/2015 2:00,35,,,,,,,,,,,,,,,,,
 10/08/2015 3:00,20,,,,,,,,,,,,,,,,,
 10/08/2015 4:00,36,,,,,,,,,,,,,,,,,
 10/08/2015 5:00,34,,,,,,,,,,,,,,,,,
 10/08/2015 6:00,40,,,,,,,,,,,,,,,,,
 10/08/2015 7:00,29,,,,,,,,,,,,,,,,,
 10/08/2015 8:00,29,,,,,,,,,,,,,,,,,
 10/08/2015 9:00,21,,,,,,,,,,,,,,,,,
 10/08/2015 10:00,120,,,,,,,,,,,,,,,,,
 10/08/2015 11:00,120,,,,,,,,,,,,,,,,,
 10/08/2015 12:00,135,,,,,,,,,,,,,,,,,
 10/08/2015 13:00,129,,,,,,,,,,,,,,,,,
 10/08/2015 14:00,118,,,,,,,,,,,,,,,,,
 10/08/2015 15:00,110,,,,,,,,,,,,,,,,,
 10/08/2015 16:00,108,,,,,,,,,,,,,,,,,
 10/08/2015 17:00,122,,,,,,,,,,,,,,,,,
 10/08/2015 18:00,110,,,,,,,,,,,,,,,,,
 10/08/2015 19:00,102,,,,,,,,,,,,,,,,,
 10/08/2015 20:00,104,,,,,,,,,,,,,,,,,
 10/08/2015 21:00,107,,,,,,,,,,,,,,,,,
 10/08/2015 22:00,105,,,,,,,,,,,,,,,,,
 10/08/2015 23:00,112,,,,,,,,,,,,,,,,,
 10/09/2015 0:00,94,,,,,,,,,,,,,,,,,
 10/09/2015 1:00,90,,,,,,,,,,,,,,,,,
 10/09/2015 2:00,109,,,,,,,,,,,,,,,,,
 10/09/2015 3:00,124,,,,,,,,,,,,,,,,,
 10/09/2015 4:00,163,,,,,,,,,,,,,,,,,
 10/09/2015 5:00,194,,,,,,,,,,,,,,,,,
 10/09/2015 6:00,201,,,,,,,,,,,,,,,,,
 10/09/2015 7:00,215,,,,,,,,,,,,,,,,,
 10/09/2015 8:00,241,,,,,,,,,,,,,,,,,
 10/09/2015 9:00,314,,,,,,,,,,,,,,,,,
 10/09/2015 10:00,323,,,,,,,,,,,,,,,,,
 10/09/2015 11:00,301,,,,,,,,,,,,,,,,,
 10/09/2015 12:00,230,,,,,,,,,,,,,,,,,
 10/09/2015 13:00,189,,,,,,,,,,,,,,,,,
 10/09/2015 14:00,215,,,,,,,,,,,,,,,,,
 10/09/2015 15:00,211,,,,,,,,,,,,,,,,,
 10/09/2015 16:00,199,,,,,,,,,,,,,,,,,
 10/09/2015 17:00,194,,,,,,,,,,,,,,,,,
 10/09/2015 18:00,194,,,,,,,,,,,,,,,,,
 10/09/2015 19:00,179,,,,,,,,,,,,,,,,,
 10/09/2015 20:00,115,,,,,,,,,,,,,,,,,
 10/09/2015 21:00,18,,,,,,,,,,,,,,,,,
 10/09/2015 22:00,31,,,,,,,,,,,,,,,,,
 10/09/2015 23:00,50,,,,,,,,,,,,,,,,,
 10/10/2015 0:00,43,,,,,,,,,,,,,,,,,
 10/10/2015 1:00,40,,,,,,,,,,,,,,,,,
 10/10/2015 2:00,55,,,,,,,,,,,,,,,,,
 10/10/2015 3:00,66,,,,,,,,,,,,,,,,,
 10/10/2015 4:00,78,,,,,,,,,,,,,,,,,
 10/10/2015 5:00,66,,,,,,,,,,,,,,,,,
 10/10/2015 6:00,58,,,,,,,,,,,,,,,,,
 10/10/2015 7:00,65,,,,,,,,,,,,,,,,,
 10/10/2015 8:00,81,,,,,,,,,,,,,,,,,
 10/10/2015 9:00,88,,,,,,,,,,,,,,,,,
 10/10/2015 10:00,111,,,,,,,,,,,,,,,,,
 10/10/2015 11:00,152,,,,,,,,,,,,,,,,,
 10/10/2015 12:00,143,,,,,,,,,,,,,,,,,
 10/10/2015 13:00,125,,,,,,,,,,,,,,,,,
 10/10/2015 14:00,92,,,,,,,,,,,,,,,,,
 10/10/2015 15:00,78,,,,,,,,,,,,,,,,,
 10/10/2015 16:00,98,,,,,,,,,,,,,,,,,
 10/10/2015 17:00,121,,,,,,,,,,,,,,,,,
 10/10/2015 18:00,204,,,,,,,,,,,,,,,,,
 10/10/2015 19:00,298,,,,,,,,,,,,,,,,,
 10/10/2015 20:00,351,,,,,,,,,,,,,,,,,
 10/10/2015 21:00,315,,,,,,,,,,,,,,,,,
 10/10/2015 22:00,285,,,,,,,,,,,,,,,,,
 10/10/2015 23:00,212,,,,,,,,,,,,,,,,,
 10/11/2015 0:00,165,,,,,,,,,,,,,,,,,
 10/11/2015 1:00,159,,,,,,,,,,,,,,,,,
 10/11/2015 2:00,132,,,,,,,,,,,,,,,,,
 10/11/2015 3:00,123,,,,,,,,,,,,,,,,,
 10/11/2015 4:00,116,,,,,,,,,,,,,,,,,
 10/11/2015 5:00,129,,,,,,,,,,,,,,,,,
 10/11/2015 6:00,161,,,,,,,,,,,,,,,,,
 10/11/2015 7:00,212,,,,,,,,,,,,,,,,,
 10/11/2015 8:00,248,,,,,,,,,,,,,,,,,
 10/11/2015 9:00,306,,,,,,,,,,,,,,,,,
 10/11/2015 10:00,358,,,,,,,,,,,,,,,,,
 10/11/2015 11:00,358,,,,,,,,,,,,,,,,,
 10/11/2015 12:00,292,,,,,,,,,,,,,,,,,
 10/11/2015 13:00,248,,,,,,,,,,,,,,,,,
 10/11/2015 14:00,258,,,,,,,,,,,,,,,,,
 10/11/2015 15:00,309,,,,,,,,,,,,,,,,,
 10/11/2015 16:00,302,,,,,,,,,,,,,,,,,
 10/11/2015 17:00,297,,,,,,,,,,,,,,,,,
 10/11/2015 18:00,280,,,,,,,,,,,,,,,,,
 10/11/2015 19:00,329,,,,,,,,,,,,,,,,,
 10/11/2015 20:00,354,,,,,,,,,,,,,,,,,
 10/11/2015 21:00,292,,,,,,,,,,,,,,,,,
 10/11/2015 22:00,279,,,,,,,,,,,,,,,,,
 10/11/2015 23:00,284,,,,,,,,,,,,,,,,,
 10/12/2015 0:00,210,,,,,,,,,,,,,,,,,
 10/12/2015 1:00,226,,,,,,,,,,,,,,,,,
 10/12/2015 2:00,172,,,,,,,,,,,,,,,,,
 10/12/2015 3:00,131,,,,,,,,,,,,,,,,,
 10/12/2015 4:00,146,,,,,,,,,,,,,,,,,
 10/12/2015 5:00,161,,,,,,,,,,,,,,,,,
 10/12/2015 6:00,167,,,,,,,,,,,,,,,,,
 10/12/2015 7:00,169,,,,,,,,,,,,,,,,,
 10/12/2015 8:00,166,,,,,,,,,,,,,,,,,
 10/12/2015 9:00,206,,,,,,,,,,,,,,,,,
 10/12/2015 10:00,288,,,,,,,,,,,,,,,,,
 10/12/2015 11:00,333,,,,,,,,,,,,,,,,,
 10/12/2015 12:00,369,,,,,,,,,,,,,,,,,
 10/12/2015 13:00,367,,,,,,,,,,,,,,,,,
 10/12/2015 14:00,321,,,,,,,,,,,,,,,,,
 10/12/2015 15:00,274,,,,,,,,,,,,,,,,,
 10/12/2015 16:00,254,,,,,,,,,,,,,,,,,
 10/12/2015 17:00,232,,,,,,,,,,,,,,,,,
 10/12/2015 18:00,235,,,,,,,,,,,,,,,,,
 10/12/2015 19:00,228,,,,,,,,,,,,,,,,,
 10/12/2015 20:00,234,,,,,,,,,,,,,,,,,
 10/12/2015 21:00,234,,,,,,,,,,,,,,,,,
 10/12/2015 22:00,208,,,,,,,,,,,,,,,,,
 10/12/2015 23:00,167,,,,,,,,,,,,,,,,,
 10/13/2015 0:00,124,,,,,,,,,,,,,,,,,
 10/13/2015 1:00,120,,,,,,,,,,,,,,,,,
 10/13/2015 2:00,94,,,,,,,,,,,,,,,,,
 10/13/2015 3:00,65,,,,,,,,,,,,,,,,,
 10/13/2015 4:00,47,,,,,,,,,,,,,,,,,
 10/13/2015 5:00,49,,,,,,,,,,,,,,,,,
 10/13/2015 6:00,48,,,,,,,,,,,,,,,,,
 10/13/2015 7:00,91,,,,,,,,,,,,,,,,,
 10/13/2015 8:00,209,,,,,,,,,,,,,,,,,
 10/13/2015 9:00,214,,,,,,,,,,,,,,,,,
 10/13/2015 10:00,221,,,,,,,,,,,,,,,,,
 10/13/2015 11:00,249,,,,,,,,,,,,,,,,,
 10/13/2015 12:00,272,,,,,,,,,,,,,,,,,
 10/13/2015 13:00,271,,,,,,,,,,,,,,,,,
 10/13/2015 14:00,272,,,,,,,,,,,,,,,,,
 10/13/2015 15:00,264,,,,,,,,,,,,,,,,,
 10/13/2015 16:00,261,,,,,,,,,,,,,,,,,
 10/13/2015 17:00,241,,,,,,,,,,,,,,,,,
 10/13/2015 18:00,241,,,,,,,,,,,,,,,,,
 10/13/2015 19:00,210,,,,,,,,,,,,,,,,,
 10/13/2015 20:00,226,,,,,,,,,,,,,,,,,
 10/13/2015 21:00,228,,,,,,,,,,,,,,,,,
 10/13/2015 22:00,212,,,,,,,,,,,,,,,,,
 10/13/2015 23:00,155,,,,,,,,,,,,,,,,,
 10/14/2015 0:00,131,,,,,,,,,,,,,,,,,
 10/14/2015 1:00,101,,,,,,,,,,,,,,,,,
 10/14/2015 2:00,84,,,,,,,,,,,,,,,,,
 10/14/2015 3:00,93,,,,,,,,,,,,,,,,,
 10/14/2015 4:00,90,,,,,,,,,,,,,,,,,
 10/14/2015 5:00,83,,,,,,,,,,,,,,,,,
 10/14/2015 6:00,93,,,,,,,,,,,,,,,,,
 10/14/2015 7:00,117,,,,,,,,,,,,,,,,,
 10/14/2015 8:00,142,,,,,,,,,,,,,,,,,
 10/14/2015 9:00,120,,,,,,,,,,,,,,,,,
 10/14/2015 10:00,128,,,,,,,,,,,,,,,,,
 10/14/2015 11:00,164,,,,,,,,,,,,,,,,,
 10/14/2015 12:00,207,,,,,,,,,,,,,,,,,
 10/14/2015 13:00,181,,,,,,,,,,,,,,,,,
 10/14/2015 14:00,144,,,,,,,,,,,,,,,,,
 10/14/2015 15:00,167,,,,,,,,,,,,,,,,,
 10/14/2015 16:00,183,,,,,,,,,,,,,,,,,
 10/14/2015 17:00,210,,,,,,,,,,,,,,,,,
 10/14/2015 18:00,218,,,,,,,,,,,,,,,,,
 10/14/2015 19:00,215,,,,,,,,,,,,,,,,,
 10/14/2015 20:00,219,,,,,,,,,,,,,,,,,
 10/14/2015 21:00,220,,,,,,,,,,,,,,,,,
 10/14/2015 22:00,206,,,,,,,,,,,,,,,,,
 10/14/2015 23:00,157,,,,,,,,,,,,,,,,,
 10/15/2015 0:00,133,,,,,,,,,,,,,,,,,
 10/15/2015 1:00,80,,,,,,,,,,,,,,,,,
 10/15/2015 2:00,81,,,,,,,,,,,,,,,,,
 10/15/2015 3:00,96,,,,,,,,,,,,,,,,,
 10/15/2015 4:00,150,,,,,,,,,,,,,,,,,
 10/15/2015 5:00,163,,,,,,,,,,,,,,,,,
 10/15/2015 6:00,191,,,,,,,,,,,,,,,,,
 10/15/2015 7:00,273,,,,,,,,,,,,,,,,,
 10/15/2015 8:00,305,,,,,,,,,,,,,,,,,
 10/15/2015 9:00,312,,,,,,,,,,,,,,,,,
 10/15/2015 10:00,327,,,,,,,,,,,,,,,,,
 10/15/2015 11:00,351,,,,,,,,,,,,,,,,,
 10/15/2015 12:00,343,,,,,,,,,,,,,,,,,
 10/15/2015 13:00,299,,,,,,,,,,,,,,,,,
 10/15/2015 14:00,304,,,,,,,,,,,,,,,,,
 10/15/2015 15:00,272,,,,,,,,,,,,,,,,,
 10/15/2015 16:00,278,,,,,,,,,,,,,,,,,
 10/15/2015 17:00,303,,,,,,,,,,,,,,,,,
 10/15/2015 18:00,312,,,,,,,,,,,,,,,,,
 10/15/2015 19:00,338,,,,,,,,,,,,,,,,,
 10/15/2015 20:00,337,,,,,,,,,,,,,,,,,
 10/15/2015 21:00,338,,,,,,,,,,,,,,,,,
 10/15/2015 22:00,331,,,,,,,,,,,,,,,,,
 10/15/2015 23:00,273,,,,,,,,,,,,,,,,,
 10/16/2015 0:00,206,,,,,,,,,,,,,,,,,
 10/16/2015 1:00,228,,,,,,,,,,,,,,,,,
 10/16/2015 2:00,231,,,,,,,,,,,,,,,,,
 10/16/2015 3:00,217,,,,,,,,,,,,,,,,,
 10/16/2015 4:00,227,,,,,,,,,,,,,,,,,
 10/16/2015 5:00,208,,,,,,,,,,,,,,,,,
 10/16/2015 6:00,213,,,,,,,,,,,,,,,,,
 10/16/2015 7:00,220,,,,,,,,,,,,,,,,,
 10/16/2015 8:00,216,,,,,,,,,,,,,,,,,
 10/16/2015 9:00,165,,,,,,,,,,,,,,,,,
 10/16/2015 10:00,233,,,,,,,,,,,,,,,,,
 10/16/2015 11:00,225,,,,,,,,,,,,,,,,,
 10/16/2015 12:00,213,,,,,,,,,,,,,,,,,
 10/16/2015 13:00,210,,,,,,,,,,,,,,,,,
 10/16/2015 14:00,225,,,,,,,,,,,,,,,,,
 10/16/2015 15:00,234,,,,,,,,,,,,,,,,,
 10/16/2015 16:00,230,,,,,,,,,,,,,,,,,
 10/16/2015 17:00,239,,,,,,,,,,,,,,,,,
 10/16/2015 18:00,247,,,,,,,,,,,,,,,,,
 10/16/2015 19:00,287,,,,,,,,,,,,,,,,,
 10/16/2015 20:00,375,,,,,,,,,,,,,,,,,
 10/16/2015 21:00,384,,,,,,,,,,,,,,,,,
 10/16/2015 22:00,379,,,,,,,,,,,,,,,,,
 10/16/2015 23:00,381,,,,,,,,,,,,,,,,,
 10/17/2015 0:00,344,,,,,,,,,,,,,,,,,
 10/17/2015 1:00,345,,,,,,,,,,,,,,,,,
 10/17/2015 2:00,393,,,,,,,,,,,,,,,,,
 10/17/2015 3:00,435,,,,,,,,,,,,,,,,,
 10/17/2015 4:00,461,,,,,,,,,,,,,,,,,
 10/17/2015 5:00,458,,,,,,,,,,,,,,,,,
 10/17/2015 6:00,510,,,,,,,,,,,,,,,,,
 10/17/2015 7:00,512,,,,,,,,,,,,,,,,,
 10/17/2015 8:00,532,,,,,,,,,,,,,,,,,
 10/17/2015 9:00,480,,,,,,,,,,,,,,,,,
 10/17/2015 10:00,479,,,,,,,,,,,,,,,,,
 10/17/2015 11:00,482,,,,,,,,,,,,,,,,,
 10/17/2015 12:00,471,,,,,,,,,,,,,,,,,
 10/17/2015 13:00,469,,,,,,,,,,,,,,,,,
 10/17/2015 14:00,465,,,,,,,,,,,,,,,,,
 10/17/2015 15:00,451,,,,,,,,,,,,,,,,,
 10/17/2015 16:00,470,,,,,,,,,,,,,,,,,
 10/17/2015 17:00,474,,,,,,,,,,,,,,,,,
 10/17/2015 18:00,491,,,,,,,,,,,,,,,,,
 10/17/2015 19:00,451,,,,,,,,,,,,,,,,,
 10/17/2015 20:00,424,,,,,,,,,,,,,,,,,
 10/17/2015 21:00,413,,,,,,,,,,,,,,,,,
 10/17/2015 22:00,376,,,,,,,,,,,,,,,,,
 10/17/2015 23:00,357,,,,,,,,,,,,,,,,,
 10/18/2015 0:00,398,,,,,,,,,,,,,,,,,
 10/18/2015 1:00,365,,,,,,,,,,,,,,,,,
 10/18/2015 2:00,284,,,,,,,,,,,,,,,,,
 10/18/2015 3:00,307,,,,,,,,,,,,,,,,,
 10/18/2015 4:00,290,,,,,,,,,,,,,,,,,
 10/18/2015 5:00,313,,,,,,,,,,,,,,,,,
 10/18/2015 6:00,388,,,,,,,,,,,,,,,,,
 10/18/2015 7:00,430,,,,,,,,,,,,,,,,,
 10/18/2015 8:00,405,,,,,,,,,,,,,,,,,
 10/18/2015 9:00,369,,,,,,,,,,,,,,,,,
 10/18/2015 10:00,475,,,,,,,,,,,,,,,,,
 10/18/2015 11:00,442,,,,,,,,,,,,,,,,,
 10/18/2015 12:00,429,,,,,,,,,,,,,,,,,
 10/18/2015 13:00,406,,,,,,,,,,,,,,,,,
 10/18/2015 14:00,420,,,,,,,,,,,,,,,,,
 10/18/2015 15:00,427,,,,,,,,,,,,,,,,,
 10/18/2015 16:00,434,,,,,,,,,,,,,,,,,
 10/18/2015 17:00,445,,,,,,,,,,,,,,,,,
 10/18/2015 18:00,476,,,,,,,,,,,,,,,,,
 10/18/2015 19:00,528,,,,,,,,,,,,,,,,,
 10/18/2015 20:00,493,,,,,,,,,,,,,,,,,
 10/18/2015 21:00,482,,,,,,,,,,,,,,,,,
 10/18/2015 22:00,434,,,,,,,,,,,,,,,,,
 10/18/2015 23:00,381,,,,,,,,,,,,,,,,,
 10/19/2015 0:00,341,,,,,,,,,,,,,,,,,
 10/19/2015 1:00,346,,,,,,,,,,,,,,,,,
 10/19/2015 2:00,346,,,,,,,,,,,,,,,,,
 10/19/2015 3:00,361,,,,,,,,,,,,,,,,,
 10/19/2015 4:00,381,,,,,,,,,,,,,,,,,
 10/19/2015 5:00,400,,,,,,,,,,,,,,,,,
 10/19/2015 6:00,422,,,,,,,,,,,,,,,,,
 10/19/2015 7:00,444,,,,,,,,,,,,,,,,,
 10/19/2015 8:00,439,,,,,,,,,,,,,,,,,
 10/19/2015 9:00,445,,,,,,,,,,,,,,,,,
 10/19/2015 10:00,472,,,,,,,,,,,,,,,,,
 10/19/2015 11:00,508,,,,,,,,,,,,,,,,,
 10/19/2015 12:00,540,,,,,,,,,,,,,,,,,
 10/19/2015 13:00,501,,,,,,,,,,,,,,,,,
 10/19/2015 14:00,460,,,,,,,,,,,,,,,,,
 10/19/2015 15:00,449,,,,,,,,,,,,,,,,,
 10/19/2015 16:00,468,,,,,,,,,,,,,,,,,
 10/19/2015 17:00,504,,,,,,,,,,,,,,,,,
 10/19/2015 18:00,559,,,,,,,,,,,,,,,,,
 10/19/2015 19:00,574,,,,,,,,,,,,,,,,,
 10/19/2015 20:00,599,,,,,,,,,,,,,,,,,
 10/19/2015 21:00,587,,,,,,,,,,,,,,,,,
 10/19/2015 22:00,534,,,,,,,,,,,,,,,,,
 10/19/2015 23:00,421,,,,,,,,,,,,,,,,,
 10/20/2015 0:00,392,,,,,,,,,,,,,,,,,
 10/20/2015 1:00,300,,,,,,,,,,,,,,,,,
 10/20/2015 2:00,308,,,,,,,,,,,,,,,,,
 10/20/2015 3:00,359,,,,,,,,,,,,,,,,,
 10/20/2015 4:00,342,,,,,,,,,,,,,,,,,
 10/20/2015 5:00,363,,,,,,,,,,,,,,,,,
 10/20/2015 6:00,337,,,,,,,,,,,,,,,,,
 10/20/2015 7:00,286,,,,,,,,,,,,,,,,,
 10/20/2015 8:00,268,,,,,,,,,,,,,,,,,
 10/20/2015 9:00,269,,,,,,,,,,,,,,,,,
 10/20/2015 10:00,266,,,,,,,,,,,,,,,,,
 10/20/2015 11:00,310,,,,,,,,,,,,,,,,,
 10/20/2015 12:00,406,,,,,,,,,,,,,,,,,
 10/20/2015 13:00,428,,,,,,,,,,,,,,,,,
 10/20/2015 14:00,409,,,,,,,,,,,,,,,,,
 10/20/2015 15:00,372,,,,,,,,,,,,,,,,,
 10/20/2015 16:00,341,,,,,,,,,,,,,,,,,
 10/20/2015 17:00,371,,,,,,,,,,,,,,,,,
 10/20/2015 18:00,398,,,,,,,,,,,,,,,,,
 10/20/2015 19:00,397,,,,,,,,,,,,,,,,,
 10/20/2015 20:00,419,,,,,,,,,,,,,,,,,
 10/20/2015 21:00,386,,,,,,,,,,,,,,,,,
 10/20/2015 22:00,341,,,,,,,,,,,,,,,,,
 10/20/2015 23:00,320,,,,,,,,,,,,,,,,,
 10/21/2015 0:00,296,,,,,,,,,,,,,,,,,
 10/21/2015 1:00,304,,,,,,,,,,,,,,,,,
 10/21/2015 2:00,311,,,,,,,,,,,,,,,,,
 10/21/2015 3:00,305,,,,,,,,,,,,,,,,,
 10/21/2015 4:00,308,,,,,,,,,,,,,,,,,
 10/21/2015 5:00,323,,,,,,,,,,,,,,,,,
 10/21/2015 6:00,290,,,,,,,,,,,,,,,,,
 10/21/2015 7:00,380,,,,,,,,,,,,,,,,,
 10/21/2015 8:00,430,,,,,,,,,,,,,,,,,
 10/21/2015 9:00,429,,,,,,,,,,,,,,,,,
 10/21/2015 10:00,429,,,,,,,,,,,,,,,,,
 10/21/2015 11:00,382,,,,,,,,,,,,,,,,,
 10/21/2015 12:00,387,,,,,,,,,,,,,,,,,
 10/21/2015 13:00,375,,,,,,,,,,,,,,,,,
 10/21/2015 14:00,339,,,,,,,,,,,,,,,,,
 10/21/2015 15:00,340,,,,,,,,,,,,,,,,,
 10/21/2015 16:00,384,,,,,,,,,,,,,,,,,
 10/21/2015 17:00,459,,,,,,,,,,,,,,,,,
 10/21/2015 18:00,496,,,,,,,,,,,,,,,,,
 10/21/2015 19:00,506,,,,,,,,,,,,,,,,,
 10/21/2015 20:00,513,,,,,,,,,,,,,,,,,
 10/21/2015 21:00,508,,,,,,,,,,,,,,,,,
 10/21/2015 22:00,478,,,,,,,,,,,,,,,,,
 10/21/2015 23:00,489,,,,,,,,,,,,,,,,,
 10/22/2015 0:00,487,,,,,,,,,,,,,,,,,
 10/22/2015 1:00,437,,,,,,,,,,,,,,,,,
 10/22/2015 2:00,438,,,,,,,,,,,,,,,,,
 10/22/2015 3:00,435,,,,,,,,,,,,,,,,,
 10/22/2015 4:00,417,,,,,,,,,,,,,,,,,
 10/22/2015 5:00,423,,,,,,,,,,,,,,,,,
 10/22/2015 6:00,438,,,,,,,,,,,,,,,,,
 10/22/2015 7:00,486,,,,,,,,,,,,,,,,,
 10/22/2015 8:00,506,,,,,,,,,,,,,,,,,
 10/22/2015 9:00,517,,,,,,,,,,,,,,,,,
 10/22/2015 10:00,532,,,,,,,,,,,,,,,,,
 10/22/2015 11:00,512,,,,,,,,,,,,,,,,,
 10/22/2015 12:00,457,,,,,,,,,,,,,,,,,
 10/22/2015 13:00,385,,,,,,,,,,,,,,,,,
 10/22/2015 14:00,287,,,,,,,,,,,,,,,,,
 10/22/2015 15:00,242,,,,,,,,,,,,,,,,,
 10/22/2015 16:00,265,,,,,,,,,,,,,,,,,
 10/22/2015 17:00,264,,,,,,,,,,,,,,,,,
 10/22/2015 18:00,282,,,,,,,,,,,,,,,,,
 10/22/2015 19:00,280,,,,,,,,,,,,,,,,,
 10/22/2015 20:00,303,,,,,,,,,,,,,,,,,
 10/22/2015 21:00,290,,,,,,,,,,,,,,,,,
 10/22/2015 22:00,256,,,,,,,,,,,,,,,,,
 10/22/2015 23:00,217,,,,,,,,,,,,,,,,,
 10/23/2015 0:00,223,,,,,,,,,,,,,,,,,
 10/23/2015 1:00,182,,,,,,,,,,,,,,,,,
 10/23/2015 2:00,180,,,,,,,,,,,,,,,,,
 10/23/2015 3:00,196,,,,,,,,,,,,,,,,,
 10/23/2015 4:00,197,,,,,,,,,,,,,,,,,
 10/23/2015 5:00,237,,,,,,,,,,,,,,,,,
 10/23/2015 6:00,268,,,,,,,,,,,,,,,,,
 10/23/2015 7:00,319,,,,,,,,,,,,,,,,,
 10/23/2015 8:00,343,,,,,,,,,,,,,,,,,
 10/23/2015 9:00,370,,,,,,,,,,,,,,,,,
 10/23/2015 10:00,354,,,,,,,,,,,,,,,,,
 10/23/2015 11:00,332,,,,,,,,,,,,,,,,,
 10/23/2015 12:00,339,,,,,,,,,,,,,,,,,
 10/23/2015 13:00,306,,,,,,,,,,,,,,,,,
 10/23/2015 14:00,294,,,,,,,,,,,,,,,,,
 10/23/2015 15:00,274,,,,,,,,,,,,,,,,,
 10/23/2015 16:00,280,,,,,,,,,,,,,,,,,
 10/23/2015 17:00,272,,,,,,,,,,,,,,,,,
 10/23/2015 18:00,333,,,,,,,,,,,,,,,,,
 10/23/2015 19:00,367,,,,,,,,,,,,,,,,,
 10/23/2015 20:00,396,,,,,,,,,,,,,,,,,
 10/23/2015 21:00,345,,,,,,,,,,,,,,,,,
 10/23/2015 22:00,311,,,,,,,,,,,,,,,,,
 10/23/2015 23:00,285,,,,,,,,,,,,,,,,,
 10/24/2015 0:00,274,,,,,,,,,,,,,,,,,
 10/24/2015 1:00,288,,,,,,,,,,,,,,,,,
 10/24/2015 2:00,279,,,,,,,,,,,,,,,,,
 10/24/2015 3:00,231,,,,,,,,,,,,,,,,,
 10/24/2015 4:00,224,,,,,,,,,,,,,,,,,
 10/24/2015 5:00,283,,,,,,,,,,,,,,,,,
 10/24/2015 6:00,318,,,,,,,,,,,,,,,,,
 10/24/2015 7:00,354,,,,,,,,,,,,,,,,,
 10/24/2015 8:00,389,,,,,,,,,,,,,,,,,
 10/24/2015 9:00,425,,,,,,,,,,,,,,,,,
 10/24/2015 10:00,496,,,,,,,,,,,,,,,,,
 10/24/2015 11:00,496,,,,,,,,,,,,,,,,,
 10/24/2015 12:00,495,,,,,,,,,,,,,,,,,
 10/24/2015 13:00,488,,,,,,,,,,,,,,,,,
 10/24/2015 14:00,483,,,,,,,,,,,,,,,,,
 10/24/2015 15:00,472,,,,,,,,,,,,,,,,,
 10/24/2015 16:00,468,,,,,,,,,,,,,,,,,
 10/24/2015 17:00,479,,,,,,,,,,,,,,,,,
 10/24/2015 18:00,489,,,,,,,,,,,,,,,,,
 10/24/2015 19:00,489,,,,,,,,,,,,,,,,,
 10/24/2015 20:00,508,,,,,,,,,,,,,,,,,
 10/24/2015 21:00,491,,,,,,,,,,,,,,,,,
 10/24/2015 22:00,487,,,,,,,,,,,,,,,,,
 10/24/2015 23:00,433,,,,,,,,,,,,,,,,,
 10/25/2015 0:00,328,,,,,,,,,,,,,,,,,
 10/25/2015 1:00,241,,,,,,,,,,,,,,,,,
 10/25/2015 2:00,192,,,,,,,,,,,,,,,,,
 10/25/2015 3:00,187,,,,,,,,,,,,,,,,,
 10/25/2015 4:00,185,,,,,,,,,,,,,,,,,
 10/25/2015 5:00,207,,,,,,,,,,,,,,,,,
 10/25/2015 6:00,221,,,,,,,,,,,,,,,,,
 10/25/2015 7:00,232,,,,,,,,,,,,,,,,,
 10/25/2015 8:00,234,,,,,,,,,,,,,,,,,
 10/25/2015 9:00,302,,,,,,,,,,,,,,,,,
 10/25/2015 10:00,361,,,,,,,,,,,,,,,,,
 10/25/2015 11:00,398,,,,,,,,,,,,,,,,,
 10/25/2015 12:00,356,,,,,,,,,,,,,,,,,
 10/25/2015 13:00,342,,,,,,,,,,,,,,,,,
 10/25/2015 14:00,337,,,,,,,,,,,,,,,,,
 10/25/2015 15:00,315,,,,,,,,,,,,,,,,,
 10/25/2015 16:00,314,,,,,,,,,,,,,,,,,
 10/25/2015 17:00,354,,,,,,,,,,,,,,,,,
 10/25/2015 18:00,390,,,,,,,,,,,,,,,,,
 10/25/2015 19:00,410,,,,,,,,,,,,,,,,,
 10/25/2015 20:00,441,,,,,,,,,,,,,,,,,
 10/25/2015 21:00,439,,,,,,,,,,,,,,,,,
 10/25/2015 22:00,410,,,,,,,,,,,,,,,,,
 10/25/2015 23:00,336,,,,,,,,,,,,,,,,,
 10/26/2015 0:00,298,,,,,,,,,,,,,,,,,
 10/26/2015 1:00,248,,,,,,,,,,,,,,,,,
 10/26/2015 2:00,234,,,,,,,,,,,,,,,,,
 10/26/2015 3:00,204,,,,,,,,,,,,,,,,,
 10/26/2015 4:00,173,,,,,,,,,,,,,,,,,
 10/26/2015 5:00,164,,,,,,,,,,,,,,,,,
 10/26/2015 6:00,205,,,,,,,,,,,,,,,,,
 10/26/2015 7:00,328,,,,,,,,,,,,,,,,,
 10/26/2015 8:00,421,,,,,,,,,,,,,,,,,